Weather History for Calgary Springbank, AB

Change the Weather History Date:

Wednesday, January 16, 2013

  Actual Average Record
Temperature  
Mean Temperature 32 °F -  
Max Temperature 41 °F 27 °F 45 °F (2014)
Min Temperature 23 °F 7 °F -23 °F (2012)
Degree Days  
Heating Degree Days 33    
Moisture  
Dew Point 21 °F    
Average Humidity 65    
Maximum Humidity 93    
Minimum Humidity 39    
Precipitation  
Precipitation 0.00 in - - ()
Sea Level Pressure  
Sea Level Pressure 30.20 in    
Wind  
Wind Speed 8 mph ()    
Max Wind Speed 13 mph    
Max Gust Speed -    
Visibility 15.0 miles    
Events      
Averages and records for this station are not official NWS values.
T = Trace of Precipitation, MM = Missing Value Source: Averaged Metar Reports

Daily Weather History Graph

Daily Weather History Graph

Search for Another Location

Airport:

Trip Planner

Search our weather history database for the weather conditions in past years. The results will help you decide how hot, cold, wet, or windy it might be!

Date:

Astronomy

Jan. 16, 2013 Rise Set
Actual Time 8:33 AM MST 5:01 PM MST
Civil Twilight 7:55 AM MST 5:39 PM MST
Nautical Twilight 7:14 AM MST 6:21 PM MST
Astronomical Twilight 6:34 AM MST 7:00 PM MST
Moon 10:29 AM MST (1/16) 11:44 PM MST (1/16)
Length of Visible Light 9h 44m
Length of Day
8h 28m
Waxing Crescent, 29% of the Moon is Illuminated
Jan 16
Waxing Crescent
Jan 18
First Quarter
Jan 26
Full
Feb 3
Last Quarter
Feb 10
New

Hourly Weather History & Observations

Time (MST) Temp. Windchill Dew Point Humidity Pressure Visibility Wind Dir Wind Speed Gust Speed Precip Events Conditions
5:00 AM 36 °F - 20 °F 39% 30.04 in 15 mi WNW 10.4 mph - -   Partly Cloudy
5:00 AM 37.4 °F 31.4 °F 19.4 °F 48% 30.04 in 15.0 mi WNW 8.1 mph - N/A   Scattered Clouds
6:00 AM 35.6 °F 27.1 °F 19.4 °F 52% 30.07 in 15.0 mi NNW 12.7 mph - N/A   Scattered Clouds
7:00 AM 35.6 °F 27.5 °F 17.6 °F 48% 30.09 in 15.0 mi NNW 11.5 mph - N/A   Partly Cloudy
8:00 AM 41.0 °F 34.3 °F 17.6 °F 39% 30.10 in 15.0 mi NNW 11.5 mph - N/A   Mostly Cloudy
9:00 AM 33.8 °F 25.8 °F 17.6 °F 52% 30.16 in 30.0 mi ESE 10.4 mph - N/A   Mostly Cloudy
10:00 AM 30.2 °F 22.6 °F 19.4 °F 64% 30.19 in 30.0 mi South 8.1 mph - N/A   Mostly Cloudy
11:00 AM 34 °F - 21 °F 47% 30.19 in 28 mi SSE 8.1 mph - -   Mostly Cloudy
11:00 AM 33.8 °F 27.0 °F 21.2 °F 60% 30.19 in 30.0 mi SSE 8.1 mph - N/A   Mostly Cloudy
12:00 PM 35.6 °F 29.9 °F 21.2 °F 56% 30.17 in 30.0 mi ESE 6.9 mph - N/A   Mostly Cloudy
1:00 PM 35.6 °F 28.0 °F 23.0 °F 60% 30.17 in 30.0 mi ESE 10.4 mph - N/A   Mostly Cloudy
2:00 PM 37.4 °F 33.8 °F 24.8 °F 60% 30.18 in 30.0 mi ESE 4.6 mph - N/A   Mostly Cloudy
3:00 PM 33.8 °F 24.8 °F 24.8 °F 70% 30.22 in 30.0 mi East 12.7 mph - N/A   Mostly Cloudy
4:00 PM 30.2 °F 21.3 °F 24.8 °F 80% 30.26 in 30.0 mi East 10.4 mph - N/A   Mostly Cloudy
5:00 PM 30 °F - 24 °F 70% 30.28 in 28 mi SE 9.2 mph - -   Scattered Clouds
5:00 PM 30.2 °F 21.9 °F 24.8 °F 80% 30.28 in 30.0 mi SE 9.2 mph - N/A   Mostly Cloudy
6:00 PM 26.6 °F 17.5 °F 21.2 °F 80% 30.31 in 15.0 mi SE 9.2 mph - N/A   Scattered Clouds
7:00 PM 26.6 °F 15.7 °F 23.0 °F 86% 30.33 in 15.0 mi SE 12.7 mph - N/A   Clear
8:00 PM 24.8 °F 14.6 °F 21.2 °F 86% 30.32 in 15.0 mi SE 10.4 mph - N/A   Partly Cloudy
9:00 PM 23.0 °F - 19.4 °F 86% 30.34 in 15.0 mi Calm Calm - N/A   Clear
10:00 PM 23.0 °F 14.7 °F 21.2 °F 93% 30.17 in 15.0 mi SE 6.9 mph - N/A   Clear